Mount Holly, NJ

1:40 AM EST on December 07, 2019 (GMT -0500)
South Jersey Regional

Weather History for KVAY - November, 2019

Change the Weather History Date:

Friday, November 22, 2019

  Actual Average (KPNE) Record (KPNE)
Temperature  
Mean Temperature 46 °F -  
Max Temperature 54 °F 51 °F 71 °F (2007)
Min Temperature 39 °F 34 °F 19 °F (2018)
Degree Days  
Heating Degree Days 18    
Moisture  
Dew Point 36 °F    
Average Humidity 64    
Maximum Humidity 86    
Minimum Humidity 47    
Precipitation  
Precipitation 0.05 in - - ()
Sea Level Pressure  
Sea Level Pressure 29.87 in    
Wind  
Wind Speed 6 mph (West)    
Max Wind Speed 14 mph    
Max Gust Speed 21 mph    
Visibility 10 miles    
Events Rain    
Averages and records for this station are not official NWS values.
T = Trace of Precipitation, MM = Missing Value Source: NWS Daily Summary

Daily Weather History Graph

Daily Weather History Graph

Search for Another Location

Airport or City:

Astronomy

Nov. 22, 2019 Rise Set
Actual Time 6:52 AM EST 4:38 PM EST
Civil Twilight 6:22 AM EST 5:08 PM EST
Nautical Twilight 5:49 AM EST 5:41 PM EST
Astronomical Twilight 5:17 AM EST 6:13 PM EST
Moon 1:55 AM EST (11/22) 2:37 PM EST (11/22)
Length of Visible Light 10h 45m
Length of Day
9h 46m
Waning Crescent, 20% of the Moon is Illuminated
Nov 22
Waning Crescent
Nov 26
New
Dec 4
First Quarter
Dec 12
Full
Dec 18
Last Quarter

Hourly Weather History & Observations

Time (EST) Temp. Windchill Dew Point Humidity Pressure Visibility Wind Dir Wind Speed Gust Speed Precip Events Conditions
12:54 AM 48.9 °F - 34.0 °F 56% 29.97 in 10.0 mi Variable 3.5 mph - N/A   Overcast
1:54 AM 50.0 °F - 35.1 °F 57% 29.96 in 10.0 mi Variable 3.5 mph - N/A   Overcast
2:54 AM 50.0 °F - 36.0 °F 59% 29.93 in 10.0 mi Variable 5.8 mph - N/A   Overcast
3:54 AM 50.0 °F - 37.0 °F 61% 29.91 in 10.0 mi SW 6.9 mph 18.4 mph N/A   Mostly Cloudy
4:54 AM 46.9 °F - 37.0 °F 68% 29.89 in 10.0 mi SSW 3.5 mph - N/A   Partly Cloudy
5:54 AM 46.9 °F - 37.0 °F 68% 29.87 in 10.0 mi Variable 3.5 mph - N/A   Overcast
6:54 AM 45.0 °F 42.6 °F 37.0 °F 74% 29.88 in 10.0 mi SW 4.6 mph - N/A   Partly Cloudy
7:54 AM 48.9 °F - 39.0 °F 69% 29.83 in 10.0 mi Variable 3.5 mph - N/A   Clear
8:54 AM 51.1 °F - 39.0 °F 63% 29.82 in 10.0 mi SW 6.9 mph - N/A   Partly Cloudy
9:54 AM 54.0 °F - 39.0 °F 57% 29.81 in 10.0 mi SW 9.2 mph - N/A   Overcast
10:54 AM 54.0 °F - 39.0 °F 57% 29.79 in 10.0 mi WSW 6.9 mph - N/A   Overcast
11:54 AM 53.1 °F - 41.0 °F 64% 29.76 in 10.0 mi SW 8.1 mph - 0.00 in Rain Light Rain
12:54 PM 51.1 °F - 45.0 °F 80% 29.74 in 5.0 mi WSW 6.9 mph - 0.01 in Rain Light Rain
1:36 PM 51.1 °F - 46.9 °F 86% 29.76 in 6.0 mi West 8.1 mph - 0.03 in Rain Light Rain
1:54 PM 51.1 °F - 46.0 °F 83% 29.76 in 10.0 mi WNW 13.8 mph 20.7 mph 0.03 in   Overcast
2:10 PM 51.1 °F - 46.0 °F 83% 29.76 in 10.0 mi West 6.9 mph - 0.00 in Rain Light Rain
2:54 PM 50.0 °F - 44.1 °F 80% 29.76 in 10.0 mi West 8.1 mph - 0.01 in   Overcast
3:54 PM 48.9 °F - 41.0 °F 74% 29.81 in 10.0 mi WNW 10.4 mph 20.7 mph N/A   Partly Cloudy
4:54 PM 48.9 °F - 36.0 °F 61% 29.84 in 10.0 mi WNW 10.4 mph 20.7 mph N/A   Clear
5:54 PM 46.9 °F - 30.9 °F 54% 29.89 in 10.0 mi WNW 8.1 mph 20.7 mph N/A   Clear
6:54 PM 46.0 °F 41.9 °F 30.0 °F 54% 29.94 in 10.0 mi WNW 8.1 mph - N/A   Clear
7:54 PM 44.1 °F 37.7 °F 26.1 °F 49% 29.96 in 10.0 mi NW 12.7 mph 17.3 mph N/A   Clear
9:54 PM 41.0 °F 35.8 °F 21.9 °F 47% 30.02 in 10.0 mi WNW 8.1 mph - N/A   Clear
10:54 PM 39.0 °F 33.4 °F 21.9 °F 50% 30.03 in 10.0 mi NW 8.1 mph - N/A   Clear
11:54 PM 39.0 °F 34.8 °F 23.0 °F 53% 30.04 in 10.0 mi WNW 5.8 mph - N/A   Clear